Regional Weather Roundup
Issued by NWS Jackson, KY

Home | Current Version | Previous Version | Text Only | Print | Product List | Glossary On
Versions: 1 2 3 4 5 6 7 8 9 10 11 12 13 14 15 16 17 18 19 20 21 22 23 24 25 26 27 28 29 30 31 32 33 34 35 36 37 38 39 40 41 42 43 44 45 46 47 48 49 50
158
ASUS43 KJKL 171910
RWRJKL

EAST KENTUCKY HOURLY WEATHER ROUNDUP
NATIONAL WEATHER SERVICE JACKSON KY
300 PM EDT THU AUG 17 2017

NOTE: "FAIR" INDICATES FEW OR NO CLOUDS BELOW 12,000 FEET WITH
NO SIGNIFICANT WEATHER AND/OR OBSTRUCTIONS TO VISIBILITY.

* THESE REPORTS ARE NOT UNDER NWS QUALITY CONTROL AND MAY NOT
  REPORT WEATHER SUCH AS PRECIPITATION AND FOG.

KYZ079-080-083-085-087-088-110-112-115-119-120-172000
...EASTERN KENTUCKY...

CITY           SKY/WX    TMP DP  RH WIND       PRES   REMARKS
JACKSON        MOSUNNY   86  73  65 VRB3      29.98F HX  93
LONDON         MOSUNNY   88  70  55 SW14      29.99F HX  93
SOMERSET*      PTSUNNY   86  68  54 SW13G20   29.99F
MONTICELLO*    MOSUNNY   88  73  61 W18G25    30.00F HX  95
WILLIAMSBURG*  CLEAR     86  73  66 SW6       30.00F HX  93
MIDDLESBORO*   MOSUNNY   86  73  65 W3        30.01F HX  93
HARLAN APT*    MOCLDY    79  68  69 S6        30.05R
PIKE CO APT*   PTSUNNY   86  74  67 SW6       30.00F HX  93
BIG SANDY APT* PTCLDY    88  74  64 SW7       29.99S HX  96
MOREHEAD APT*  MOCLDY    88  73  62 SW10G18   29.95F HX  96
$$

KYZ035-036-041-042-044-050-067-078-099-172000
...CENTRAL KENTUCKY...

CITY           SKY/WX    TMP DP  RH WIND       PRES   REMARKS
MT STERLING*   MOSUNNY   88  72  58 SW12G20   29.96F HX  94
FLEMING/MASON* MOSUNNY   89  73  58 SW14G20   29.93F HX  97
DANVILLE*      PTSUNNY   90  70  51 SW13G18   29.96F HX  95
LEXINGTON      MOSUNNY   89  69  51 SW17G25   29.93F HX  93
FRANKFORT      MOSUNNY   90  71  53 SW14      29.90F HX  96
LOUISVILLE     CLOUDY    95  72  47 SW16G26   29.86F HX 103
LEBANON*         N/A     90  72  55 S13G24    29.93F HX  96
GLASGOW*       PTSUNNY   87  71  57 SW10G18   29.96F HX  93
BOWLING GREEN  CLOUDY    87  74  64 SW15      29.95F HX  95
$$

KYZ091>093-OHZ055-061-077-WVZ005-015-034-035-042-172000
...SOUTHERN OHIO/WEST VIRGINIA...

CITY           SKY/WX    TMP DP  RH WIND       PRES   REMARKS
COVINGTON      TSTM      79  75  87 W20G32    29.89R
COLUMBUS       PTSUNNY   87  73  62 SW13      29.86F HX  94
DAYTON         CLOUDY    76  75  97 SW9       29.88S
WILMINGTON     PTSUNNY   85  72  65 S15G23    29.86F HX  91
HUNTINGTON     PTSUNNY   87  73  62 SW10      29.93F HX  94
CHARLESTON     CLOUDY    88  71  57 SW18G30   29.95F HX  94
PINEVILLE*     MOSUNNY   87  71  59 MISG      30.06F HX  93
BECKLEY        PTSUNNY   81  69  67 W8        30.06F
BLUEFIELD      PTSUNNY   81  67  62 W9        30.10F
LOGAN CO APT*    N/A     81  73  78 VRB6      30.01F
$$

VAZ002-007-008-TNZ017-027-036-066-071-172000
...SOUTHWEST VIRGINIA/EAST TENNESSEE...

CITY           SKY/WX    TMP DP  RH WIND       PRES   REMARKS
WISE*          MOSUNNY   82  68  61 SW13G20   30.11F
JONESVILLE*      N/A     86  72  62 SW9       30.04F HX  92
ABINGDON*      PTSUNNY   85  74  68 SW7       30.07F HX  92
BRISTOL        PTSUNNY   84  74  71 SW7       30.04F HX  91
MORRISTOWN*    PTCLDY    88  73  62 W12G17    30.02F HX  96
SEVIERVILLE*   PTCLDY    91  70  49 W9        30.00F HX  97
KNOXVILLE      PTSUNNY   88  70  55 SW14G25   30.01F HX  93
LAFOLLETTE*    CLEAR     82  73  74 CALM      30.04F
OAK RIDGE      CLOUDY    88  72  58 VRB7      30.02F HX  94
CROSSVILLE     SUNNY     83  69  62 W14G20    30.07F
NASHVILLE      PTSUNNY   88  71  57 SW12      29.99F HX  94
$$

...KEY TO REMARKS...
VSB - VISIBILITY IN MILES
WCI - WIND CHILL INDEX
HX  - HEAT INDEX

$$




USA.gov is the U.S. government's official web portal to all federal, state and local government web resources and services.